Content
SEND FEEDBACK

Daily
Averages
Monthly
Summary
Canada

QUEBEC CITY, QUEBEC


Home > North America > Canada > Quebec
Elevation: 239 feet     Latitude: 46 48N     Longitude: 071 23W

WEATHER
 
SELECT A DAY
Number of Records: 191,996;   Date Range: 6/30/96 - 7/23/14
 
SHARE

PRINT THIS DATA

[ ← Previous Day ]
WEATHER ALMANAC - JANUARY 10, 2013
[ Next Day → ]
[ °C ]   °F
Weather ElementAverageHighLow
Temperature30.9 °F37 °F (4:00 am)20 °F (10:00 pm)
Dewpoint22.2 °F32 °F (1:00 am)14 °F (9:00 pm)
Humidity68.7 %90 % (1:00 am)48 % (4:00 pm)
Barometer30.26 in30.56 in (7:00 pm)29.81 in (1:00 am)
Wind Speed13.2 mph24.2 mph (8:00 am)
Wind Gust34.5 mph (8:00 am)
Weather ElementAverage
Visibility20.7 mi
Wind DirectionWNW (287.7 °)

Weather ElementTotal
Precipitation---
Heating Degree Days36.5 (Base 65)
Averaged from 31 records on January 10, 2013
WEATHER CONDITIONS BREAKOUT
WIND DIRECTION BREAKOUT
WEATHER BY HOUR - JANUARY 10, 2013
[ °C ]   °F
Local TimeTemperatureDewpointHumidityBarometerVisibilityWind DirectionWind SpeedGust SpeedPrecipitationEventsConditions
1:00 AM34.0 °F32.0 °F90 %29.81 inWest (260°)17.3 mph
1:00 AM33.8 °F30.2 °F87 %29.81 in5.0 miWest (260°)19.6 mph27.6 mphSnowLight Snow
2:00 AM33.8 °F30.2 °F87 %29.86 in8.0 miWest (260°)20.7 mph27.6 mphMostly Cloudy
3:00 AM33.8 °F30.2 °F87 %29.89 in12.0 miWest (260°)19.6 mphSnowLight Snow Showers
4:00 AM37.0 °F29.0 °F63 %29.96 inWest (280°)16.1 mph
4:00 AM35.6 °F28.4 °F75 %29.96 in15.0 miWest (270°)12.7 mph18.4 mphOvercast
5:00 AM33.8 °F30.2 °F87 %30.00 in15.0 miWSW (250°)15.0 mphMostly Cloudy
6:00 AM33.8 °F30.2 °F87 %30.03 in15.0 miWSW (250°)16.1 mphMostly Cloudy
7:00 AM36.0 °F29.0 °F68 %30.06 inWest (270°)20.7 mph
7:00 AM35.6 °F28.4 °F75 %30.06 in30.0 miWest (270°)21.9 mph29.9 mphOvercast
8:00 AM33.8 °F24.8 °F70 %30.11 in30.0 miWNW (290°)24.2 mph34.5 mphScattered Clouds
9:00 AM32.0 °F23.0 °F69 %30.16 in30.0 miWNW (300°)24.2 mph34.5 mphPartly Cloudy
10:00 AM33.0 °F22.0 °F54 %30.24 inNW (320°)12.7 mph
10:00 AM32.0 °F21.2 °F64 %30.25 in30.0 miWNW (300°)17.3 mph25.3 mphPartly Cloudy
11:00 AM32.0 °F19.4 °F60 %30.29 in30.0 miNW (320°)5.8 mph21.9 mphScattered Clouds
12:00 PM30.2 °F17.6 °F60 %30.31 in30.0 miNNW (330°)6.9 mph19.6 mphMostly Cloudy
1:00 PM32.0 °F20.0 °F49 %30.31 inNW (320°)17.3 mph
1:00 PM32.0 °F19.4 °F60 %30.32 in30.0 miNW (310°)19.6 mph28.8 mphPartly Cloudy
2:00 PM32.0 °F19.4 °F60 %30.39 in30.0 miWNW (300°)9.2 mphScattered Clouds
3:00 PM32.0 °F19.4 °F60 %30.44 in30.0 miNNW (330°)9.2 mphMostly Cloudy
4:00 PM31.0 °F19.0 °F48 %30.47 inWNW (300°)9.2 mph
4:00 PM30.2 °F17.6 °F60 %30.48 in30.0 miWNW (290°)5.8 mphMostly Cloudy
5:00 PM30.2 °F17.6 °F60 %30.53 in15.0 miWest (280°)10.4 mphMostly Cloudy
6:00 PM28.4 °F19.4 °F69 %30.55 in15.0 miWest (260°)8.1 mphMostly Cloudy
7:00 PM28.0 °F19.0 °F59 %30.55 inWNW (290°)5.8 mph
7:00 PM26.6 °F17.6 °F69 %30.56 in15.0 miWNW (290°)6.9 mphMostly Cloudy
8:00 PM26.6 °F15.8 °F64 %30.56 in15.0 miNW (310°)8.1 mphPartly Cloudy
9:00 PM21.2 °F14.0 °F74 %30.55 in15.0 miWest (280°)6.9 mphClear
10:00 PM20.0 °F16.0 °F78 %30.54 inWest (270°)3.5 mph
10:00 PM23.0 °F14.0 °F68 %30.55 in15.0 miWNW (290°)6.9 mphClear
11:00 PM23.0 °F14.0 °F68 %30.55 in15.0 miNW (310°)11.5 mphClear
Hourly data recorded from CYQB, located miles away from Quebec City, Quebec







STORIES FROM OUR PARTNERS